Weather History for PAKW - October, 2012

Change the Weather History Date:

Wednesday, October 31, 2012

  Actual Average (PANT) Record (PANT)
Temperature  
Mean Temperature 32 °F 43 °F  
Max Temperature 44 °F 48 °F 67 °F (1970)
Min Temperature 21 °F 38 °F 18 °F (1984)
Degree Days  
Heating Degree Days 33 22  
Month to date heating degree days 565  
Since 1 July heating degree days 1300  
Cooling Degree Days 0    
Month to date cooling degree days  
Moisture  
Dew Point 20 °F    
Average Humidity 72    
Maximum Humidity 89    
Minimum Humidity 37    
Precipitation  
Precipitation 0.00 in 0.48 in 3.00 in (1963)
Month to date precipitation 13.92  
Year to date precipitation 78.62  
Snow  
Snow 0.00 in 0.00 in 1.80 in (1956)
Month to date snowfall 0.1  
Since 1 July snowfall 0.1  
Since 1 September snowfall 0.1  
Snow Depth -    
Sea Level Pressure  
Sea Level Pressure 29.74 in    
Wind  
Wind Speed 0 mph (WNW)    
Max Wind Speed 4 mph    
Max Gust Speed -    
Visibility 10 miles    
Events      
T = Trace of Precipitation, MM = Missing Value Source: NWS Daily Summary

Daily Weather History Graph

Daily Weather History Graph

Search for Another Location

Airport or City:

Trip Planner

Search our weather history database for the weather conditions in past years. The results will help you decide how hot, cold, wet, or windy it might be!

Date:

Astronomy

Oct. 31, 2012 Rise Set
Actual Time 7:57 AM AKDT 5:13 PM AKDT
Civil Twilight 7:18 AM AKDT 5:52 PM AKDT
Nautical Twilight 6:34 AM AKDT 6:36 PM AKDT
Astronomical Twilight 5:51 AM AKDT 7:18 PM AKDT
Moon 6:07 PM AKDT (10/31) 10:06 AM AKDT (10/31)
Length of Visible Light 10h 34m
Length of Day
9h 16m
Waning Gibbous, 96% of the Moon is Illuminated
Oct 31
Waning Gibbous
Nov 6
Last Quarter
Nov 13
New
Nov 20
First Quarter
Nov 28
Full

Hourly Weather History & Observations

Time (AKDT) Temp. Windchill Dew Point Humidity Pressure Visibility Wind Dir Wind Speed Gust Speed Precip Events Conditions
12:53 AM 23.0 °F - 19.9 °F 88% 29.82 in 10.0 mi Calm Calm - N/A   Clear
1:53 AM 23.0 °F - 19.9 °F 88% 29.80 in 10.0 mi Calm Calm - N/A   Clear
2:53 AM 21.9 °F - 19.0 °F 89% 29.79 in 10.0 mi Calm Calm - N/A   Clear
3:53 AM 21.9 °F - 19.0 °F 89% 29.79 in 10.0 mi Calm Calm - N/A   Clear
4:53 AM 21.9 °F - 19.0 °F 89% 29.78 in 10.0 mi Calm Calm - N/A   Clear
5:53 AM 21.0 °F - 18.0 °F 88% 29.77 in 10.0 mi Calm Calm - N/A   Clear
6:53 AM 23.0 °F - 19.9 °F 88% 29.77 in 10.0 mi Calm Calm - N/A   Clear
7:53 AM 23.0 °F - 19.0 °F 85% 29.76 in 10.0 mi Calm Calm - N/A   Clear
8:53 AM 21.9 °F - 19.0 °F 89% 29.75 in 10.0 mi Calm Calm - N/A   Clear
9:53 AM 30.0 °F - 25.0 °F 82% 29.75 in 10.0 mi Calm Calm - N/A   Clear
10:53 AM 34.0 °F - 24.1 °F 67% 29.74 in 10.0 mi Calm Calm - N/A   Clear
11:53 AM 37.9 °F - 18.0 °F 45% 29.74 in 10.0 mi Calm Calm - N/A   Clear
12:53 PM 39.9 °F 37.8 °F 16.0 °F 38% 29.73 in 10.0 mi WNW 3.5 mph - N/A   Clear
1:53 PM 43.0 °F - 19.0 °F 38% 29.72 in 10.0 mi Calm Calm - N/A   Clear
2:53 PM 43.0 °F - 19.0 °F 38% 29.72 in 10.0 mi Calm Calm - N/A   Clear
3:53 PM 43.0 °F - 18.0 °F 37% 29.70 in 10.0 mi Calm Calm - N/A   Clear
4:53 PM 39.0 °F - 23.0 °F 53% 29.70 in 10.0 mi Calm Calm - N/A   Clear
5:53 PM 35.1 °F - 21.9 °F 59% 29.70 in 10.0 mi Calm Calm - N/A   Clear
6:53 PM 30.0 °F - 21.0 °F 69% 29.70 in 10.0 mi Calm Calm - N/A   Clear
7:53 PM 28.9 °F - 23.0 °F 78% 29.71 in 10.0 mi Calm Calm - N/A   Clear
8:53 PM 28.9 °F - 23.0 °F 78% 29.73 in 10.0 mi Calm Calm - N/A   Clear
9:53 PM 27.0 °F - 21.9 °F 81% 29.73 in 10.0 mi Calm Calm - N/A   Clear
10:53 PM 25.0 °F - 21.0 °F 85% 29.73 in 10.0 mi Calm Calm - N/A   Clear
11:53 PM 27.0 °F - 21.9 °F 81% 29.74 in 10.0 mi Calm Calm - N/A   Clear